Weather History for Durango, Mexico

Change the Weather History Date:

Friday, March 8, 2013

  Actual Average Record
Temperature  
Mean Temperature 64 °F -  
Max Temperature 74 °F 77 °F 86 °F (2003)
Min Temperature 54 °F 42 °F 19 °F (2008)
Degree Days  
Heating Degree Days 1    
Growing Degree Days 14 (Base 50)    
Moisture  
Dew Point 25 °F    
Average Humidity 23    
Maximum Humidity 41    
Minimum Humidity 11    
Precipitation  
Precipitation 0.00 in - - ()
Sea Level Pressure  
Sea Level Pressure 30.05 in    
Wind  
Wind Speed 6 mph ()    
Max Wind Speed 22 mph    
Max Gust Speed -    
Visibility 12.0 miles    
Events      
Averages and records for this station are not official NWS values.
T = Trace of Precipitation, MM = Missing Value Source: Averaged Metar Reports

Daily Weather History Graph

Daily Weather History Graph

Search for Another Location

Airport:

Trip Planner

Search our weather history database for the weather conditions in past years. The results will help you decide how hot, cold, wet, or windy it might be!

Date:

Astronomy

Mar. 08, 2013 Rise Set
Actual Time 7:13 AM CST 7:04 PM CST
Civil Twilight 6:50 AM CST 7:26 PM CST
Nautical Twilight 6:24 AM CST 7:53 PM CST
Astronomical Twilight 5:58 AM CST 8:19 PM CST
Moon 4:42 AM CST (3/8) 4:17 PM CST (3/8)
Length of Visible Light 12h 36m
Length of Day
11h 50m
Waning Crescent, 11% of the Moon is Illuminated
Mar 8
Waning Crescent
Mar 11
New
Mar 19
First Quarter
Mar 27
Full
Apr 2
Last Quarter

Hourly Weather History & Observations

Time (CST) Temp. Dew Point Humidity Pressure Visibility Wind Dir Wind Speed Gust Speed Precip Events Conditions
2:50 AM 58 °F 32 °F 25% 29.83 in 6 mi SE 2.2 mph - -   Overcast
5:45 AM 59 °F 33 °F 25% 29.85 in 6 mi SW 2.2 mph - -   Mostly Cloudy
6:05 AM 51.8 °F 26.6 °F 38% 29.88 in 8.0 mi ESE 3.5 mph - N/A   Mostly Cloudy
6:45 AM 51.8 °F 28.4 °F 41% 30.22 in 10.0 mi Calm Calm - N/A   Scattered Clouds
7:50 AM 53.6 °F 23.0 °F 30% 30.24 in 14.0 mi WSW 5.8 mph - N/A   Scattered Clouds
8:45 AM 59 °F 30 °F 22% 29.97 in 19 mi WNW 2.2 mph - -   Scattered Clouds
8:50 AM 60.8 °F 19.4 °F 20% 29.97 in 14.0 mi SW 8.1 mph - N/A   Partly Cloudy
9:45 AM 62.6 °F 17.6 °F 18% 30.29 in 14.0 mi SSW 10.4 mph - N/A   Scattered Clouds
10:51 AM 64.4 °F 17.6 °F 16% 30.28 in 14.0 mi WSW 5.8 mph - N/A   Overcast
11:47 AM 69.8 °F 17.6 °F 14% 29.93 in 14.0 mi SSW 11.5 mph - N/A   Overcast
11:50 AM 69 °F 27 °F 11% 29.96 in 22 mi SW 8.9 mph - -   Overcast
12:45 PM 69.8 °F 17.6 °F 14% 30.24 in 4.0 mi SSW 15.0 mph - N/A   Overcast
1:46 PM 69.8 °F 17.6 °F 14% 30.21 in 14.0 mi South 15.0 mph - N/A   Overcast
2:43 PM 69.8 °F 17.6 °F 14% 29.89 in 14.0 mi South 16.1 mph - N/A   Overcast
2:45 PM 61 °F 36 °F 27% 29.86 in 25 mi SW 8.9 mph - -   Overcast
3:41 PM 68.0 °F 15.8 °F 13% 30.18 in 14.0 mi SSW 21.9 mph - N/A   Overcast
4:43 PM 68.0 °F 21.2 °F 17% 30.19 in 14.0 mi SSW 19.6 mph - N/A   Overcast
5:50 PM 67 °F 30 °F 15% 29.84 in 19 mi SW 4.5 mph - -   Overcast
5:50 PM 66.2 °F 23.0 °F 19% 29.92 in 14.0 mi South 12.7 mph - N/A   Overcast
6:41 PM 64.4 °F 23.0 °F 21% 30.21 in 14.0 mi SSW 11.5 mph - N/A   Overcast
7:42 PM 62.6 °F 30.2 °F 30% 30.22 in 10.0 mi West 10.4 mph - N/A   Overcast
8:43 PM 57.2 °F 30.2 °F 36% 29.95 in 10.0 mi SSW 8.1 mph - N/A   Partly Cloudy
8:50 PM 60 °F 37 °F 30% 29.88 in 9 mi West 2.2 mph - -   Partly Cloudy
9:42 PM 55.4 °F 32.0 °F 41% 30.24 in 10.0 mi SE 3.5 mph - N/A   Clear